Wind_Speed
46 50 44 43 33 30 31 36 43 53 53 39 21 24 40 59 83 106 109 118 118 110 113 116 110 104 98 94 88 85 80 80 78 77 76 71 65 61 56 56 53 50 46 44 44
47 47 45 47 39 32 31 31 38 48 50 40 26 12 31 53 76 105 119 120 117 106 109 113 110 107 102 99 94 85 80 81 84 83 80 74 70 65 61 57 54 54 52 49 47
51 44 46 45 41 36 30 30 32 39 47 41 28 15 18 46 72 104 113 117 114 109 109 112 113 109 107 102 96 91 85 84 86 87 82 75 69 66 67 63 63 60 55 54 52
53 47 45 43 46 38 31 28 27 30 40 36 23 18 11 32 61 91 109 116 117 111 106 110 108 109 107 106 98 95 94 89 85 85 82 80 76 73 70 68 66 62 60 57 57
53 52 45 45 43 37 32 26 25 24 30 30 25 9 10 24 48 72 98 112 117 113 107 108 109 108 108 108 102 100 96 93 86 89 84 84 79 75 74 74 69 67 64 62 62
55 50 47 45 46 37 33 27 22 20 20 27 21 13 6 20 39 63 85 104 117 116 110 108 112 114 116 110 106 104 100 96 89 88 87 84 83 79 77 79 75 72 70 67 64
70 55 49 45 42 43 31 28 23 20 16 19 20 15 9 17 31 53 72 88 106 115 115 112 113 108 110 107 105 105 99 94 94 89 90 89 86 81 83 84 83 78 75 72 71
80 68 48 42 39 37 32 27 26 20 19 14 18 18 17 21 29 43 62 80 95 108 113 114 110 107 109 109 105 103 100 93 97 94 92 90 86 88 88 86 85 81 79 77 76
81 68 55 41 37 38 31 27 26 25 24 17 14 15 19 20 24 35 50 68 85 99 105 110 109 108 108 107 103 101 100 96 98 97 96 93 92 92 90 86 82 81 81 83 83
83 61 51 42 38 36 30 32 26 31 28 26 19 16 17 20 29 33 42 56 71 92 102 105 106 108 107 104 102 104 104 103 104 102 100 93 90 91 89 85 84 85 86 88 85
86 68 50 45 39 34 32 29 29 31 35 31 27 23 17 23 26 32 41 52 64 85 95 100 103 105 108 107 108 107 104 104 104 102 97 92 89 89 92 88 87 86 92 90 89
75 68 53 47 45 39 36 29 33 32 38 34 34 31 23 18 25 29 38 46 58 70 83 97 98 107 109 108 106 103 101 99 100 104 98 96 93 90 89 90 91 92 92 92 90
83 64 60 48 47 43 39 36 33 37 39 40 39 38 31 22 25 33 35 44 57 70 80 89 98 106 107 106 104 103 102 104 106 105 96 96 94 94 93 95 95 94 95 95 97
91 75 70 54 45 44 41 41 38 39 40 45 45 44 39 33 27 30 36 41 48 61 73 83 93 97 101 103 106 106 105 105 107 107 103 102 98 98 98 100 99 97 97 97 99
92 81 77 59 50 45 42 43 42 42 40 48 48 48 48 41 38 34 37 40 48 55 62 75 83 92 95 100 104 106 108 108 109 109 106 103 101 100 99 100 100 100 101 103 104
90 79 73 61 51 47 44 44 44 45 44 48 53 52 51 50 46 41 37 44 47 51 55 63 72 80 86 95 98 104 107 108 110 110 109 108 107 102 103 105 106 107 108 109 109
92 78 78 62 50 47 46 44 45 46 47 49 57 58 56 54 54 48 44 40 42 49 55 62 63 68 77 84 87 92 98 103 107 108 105 108 109 103 106 106 107 111 112 112 113
87 79 70 55 49 43 43 41 43 48 48 51 57 59 59 58 57 55 48 45 42 43 50 56 61 63 67 71 77 81 85 89 90 94 99 103 102 101 105 106 109 111 111 110 110
80 72 61 45 43 38 39 37 44 47 47 52 56 61 62 61 59 58 57 53 49 45 46 52 58 65 68 70 72 73 75 77 77 78 80 82 83 87 91 94 95 95 95 94 95
77 62 51 41 37 35 38 41 41 48 45 52 55 59 63 64 65 64 61 60 58 58 56 50 51 56 61 66 69 71 72 73 74 75 75 74 76 79 84 85 87 88 88 88 90
72 55 43 36 33 33 37 48 44 46 46 52 53 58 62 65 68 67 65 65 68 64 60 57 55 54 53 56 60 61 66 69 72 72 73 75 75 80 81 85 86 86 87 86 85
58 44 36 33 31 33 40 46 45 47 49 51 52 54 63 64 67 68 70 70 67 66 65 63 62 61 58 57 56 56 56 57 58 60 62 64 62 69 73 76 78 77 74 73 75
49 37 31 30 28 33 40 42 47 50 53 52 52 57 60 62 66 68 67 71 70 69 67 66 67 67 64 63 61 60 61 61 61 62 60 61 62 70 70 71 73 73 73 72 73
41 31 27 26 26 31 37 45 51 54 52 55 56 56 64 61 65 71 72 68 71 73 71 71 68 63 63 64 65 64 64 65 65 65 68 66 73 76 76 77 78 77 80 80 81
34 28 23 24 24 30 39 50 56 60 57 57 59 61 64 66 68 71 74 73 69 70 72 71 70 69 68 66 65 65 66 66 66 68 67 70 69 75 77 79 82 85 87 88 89
29 25 20 22 25 31 44 57 61 61 65 60 60 69 70 69 70 66 69 71 71 69 70 73 73 73 72 72 72 73 72 69 71 74 72 74 75 78 81 84 87 90 91 93 95
24 22 19 23 29 33 46 59 64 63 64 68 64 66 69 69 68 69 68 67 71 73 72 71 74 75 74 74 75 76 77 75 76 77 78 79 81 84 86 89 90 93 97 99 99
Wind_Direction
343 344 343 342 324 307 315 318 325 334 338 337 308 243 218 211 206 204 208 208 211 213 212 213 213 215 217 220 218 218 220 224 227 230 234 232 229 232 233 236 237 242 241 241 241
342 346 343 343 338 316 318 320 329 336 339 342 340 266 215 203 201 199 203 206 210 212 210 212 211 213 215 219 218 216 219 224 227 227 231 232 231 234 237 239 240 241 240 240 241
345 342 341 341 338 330 314 319 328 338 339 341 350 330 217 201 199 198 202 204 208 210 209 212 211 212 212 217 219 219 218 221 225 227 228 234 232 234 237 238 240 241 238 241 242
346 341 338 338 338 334 320 318 319 333 337 333 345 342 254 208 201 199 200 202 205 209 209 209 212 212 215 216 217 219 220 221 224 229 229 233 233 231 234 238 241 242 244 244 242
342 342 337 335 337 333 321 309 309 321 335 327 332 342 285 218 203 199 200 202 204 207 208 208 211 211 211 215 214 218 220 221 220 226 229 233 233 235 235 238 240 243 242 244 244
347 339 337 329 331 332 322 300 301 304 321 328 315 304 249 229 212 205 201 202 203 205 206 208 209 210 211 213 214 217 220 223 224 226 229 232 234 235 239 239 239 241 243 245 243
342 341 332 330 325 332 317 300 286 285 299 319 303 294 238 225 216 211 208 204 203 204 205 208 212 211 212 213 217 218 220 224 225 224 229 229 235 236 238 239 240 239 242 245 249
346 341 331 326 323 328 319 296 276 272 269 288 305 279 254 224 218 217 214 208 205 204 205 208 211 212 213 214 216 219 222 223 229 229 227 231 233 237 238 240 241 241 242 244 247
344 339 334 322 324 320 314 295 275 259 255 251 270 288 262 241 220 218 216 213 211 207 206 206 209 213 212 215 217 220 222 222 228 231 230 230 232 237 242 245 247 250 250 248 248
341 335 327 323 316 315 307 294 269 256 245 239 240 263 262 238 223 214 217 214 215 209 206 206 208 212 210 214 217 220 222 223 225 228 232 233 235 239 242 245 248 250 252 254 255
339 337 326 318 312 303 298 288 274 254 243 235 232 243 251 230 226 222 214 213 212 213 211 209 208 211 211 213 216 220 223 226 229 231 234 236 237 240 244 244 246 248 250 252 254
335 334 326 313 311 302 287 276 265 255 241 233 229 233 233 230 223 221 218 213 213 214 213 213 213 213 214 215 218 221 224 228 233 236 235 237 239 240 244 247 247 248 251 254 256
337 328 326 311 303 299 281 271 258 259 237 230 228 227 229 219 217 219 217 217 215 213 216 217 216 217 216 216 219 221 223 226 229 233 236 239 238 241 244 245 249 251 253 255 257
334 330 322 311 295 291 282 264 253 248 240 226 226 225 224 222 213 217 219 216 217 219 218 219 222 222 221 221 222 223 226 228 232 234 235 238 240 241 242 245 250 252 253 256 258
328 326 323 307 297 281 278 262 251 243 239 224 224 223 222 223 221 214 216 218 216 217 220 223 223 224 224 225 224 225 227 229 232 236 237 239 240 244 245 247 249 252 254 257 259
324 321 317 305 292 277 270 255 252 241 237 228 222 221 221 220 222 219 212 216 218 217 219 224 226 227 227 229 229 230 231 233 234 236 240 242 242 244 249 250 252 253 256 258 261
321 317 314 300 284 273 264 250 248 238 234 229 220 219 218 220 220 220 219 212 215 217 219 220 221 224 226 229 230 234 237 238 238 240 242 245 245 244 250 253 254 255 255 257 261
319 315 309 296 280 265 255 246 242 235 233 225 221 217 219 218 221 221 218 222 219 216 221 222 222 223 226 229 231 233 235 238 240 243 245 247 249 249 250 252 255 257 259 260 262
313 314 306 291 272 258 244 235 237 230 232 223 221 216 218 219 219 221 220 219 223 224 224 223 223 222 223 225 226 228 231 235 238 240 242 244 246 248 250 251 253 255 257 258 259
315 312 303 286 267 250 235 227 227 227 228 222 220 216 217 218 220 220 221 220 221 221 222 225 228 227 228 230 232 232 233 236 238 239 241 243 244 247 248 250 250 252 254 254 256
315 310 301 283 261 244 232 224 224 224 222 218 220 215 215 219 220 220 220 222 224 223 224 225 227 229 231 230 231 233 236 238 240 242 244 244 247 249 250 252 252 252 254 254 255
313 308 296 280 256 236 225 222 220 215 211 213 211 219 213 218 221 222 223 224 225 226 227 226 228 231 232 234 236 237 239 241 242 243 245 246 249 250 250 252 254 255 257 259 259
311 302 288 276 254 231 221 213 207 206 204 206 206 213 217 218 220 222 225 228 228 228 229 230 231 232 233 236 238 240 241 242 243 245 246 246 247 252 254 256 258 258 257 255 255
309 296 282 271 249 224 212 203 200 198 197 203 206 209 220 219 222 221 222 225 229 230 232 231 231 233 236 238 240 241 243 245 246 247 247 249 248 250 252 254 257 259 261 261 259
303 288 275 261 241 218 205 198 195 194 194 200 208 210 212 217 220 221 222 224 228 231 233 235 235 236 237 237 238 239 244 247 249 249 251 253 255 256 257 259 260 261 260 261 261
297 281 264 248 234 216 203 196 192 196 196 195 207 209 215 217 218 219 222 225 228 230 233 234 235 237 238 239 241 244 247 249 250 252 254 256 259 260 261 261 262 263 264 265 265
292 274 253 237 232 212 202 196 198 195 203 203 208 216 213 217 222 223 223 225 229 231 233 236 238 239 241 242 245 247 248 249 251 255 257 259 260 263 264 265 267 268 268 268 266
Height
10684 10675 10666 10657 10649 10642 10634 10627 10616 10601 10584 10569 10560 10556 10560 10571 10592 10622 10652 10659 10672 10697 10722 10740 10760 10779 10796 10805 10820 10830 10844 10850 10854 10858 10861 10876 10885 10888 10896 10903 10908 10912 10917 10923 10924
10677 10668 10660 10652 10642 10635 10629 10620 10610 10597 10584 10571 10561 10558 10559 10567 10583 10606 10616 10643 10667 10696 10716 10731 10748 10765 10784 10794 10808 10823 10836 10838 10840 10845 10850 10866 10878 10885 10890 10896 10902 10906 10910 10914 10915
10672 10663 10655 10647 10638 10629 10623 10617 10609 10598 10586 10577 10568 10564 10565 10569 10578 10594 10620 10639 10666 10684 10702 10719 10735 10754 10768 10783 10797 10813 10824 10822 10826 10833 10845 10856 10868 10879 10882 10887 10890 10896 10902 10906 10907
10668 10658 10650 10642 10634 10626 10618 10613 10609 10600 10593 10583 10576 10573 10572 10576 10585 10597 10615 10633 10654 10671 10693 10713 10732 10747 10762 10773 10786 10797 10807 10812 10820 10828 10837 10843 10854 10864 10872 10878 10886 10891 10893 10896 10898
10664 10655 10646 10638 10630 10623 10615 10609 10606 10602 10596 10589 10582 10579 10580 10584 10589 10596 10610 10629 10646 10665 10686 10704 10716 10732 10742 10756 10771 10781 10791 10801 10811 10817 10830 10834 10847 10854 10864 10866 10875 10880 10885 10887 10889
10658 10650 10642 10634 10626 10619 10612 10606 10602 10601 10596 10592 10587 10584 10583 10587 10592 10598 10604 10619 10636 10654 10676 10688 10699 10707 10722 10738 10758 10770 10773 10792 10804 10812 10820 10830 10834 10845 10849 10851 10860 10866 10870 10878 10884
10653 10643 10635 10629 10621 10614 10608 10602 10599 10598 10596 10593 10590 10587 10585 10586 10593 10601 10609 10616 10631 10644 10660 10673 10684 10705 10722 10736 10748 10760 10769 10783 10793 10800 10808 10816 10823 10836 10828 10835 10840 10853 10863 10871 10876
10645 10636 10627 10620 10614 10609 10602 10597 10594 10593 10593 10592 10589 10587 10586 10587 10593 10600 10607 10616 10625 10636 10651 10669 10683 10702 10716 10732 10741 10753 10763 10776 10779 10787 10794 10806 10813 10810 10812 10821 10833 10845 10854 10861 10867
10636 10627 10618 10611 10606 10601 10596 10591 10588 10587 10587 10588 10588 10586 10586 10587 10590 10596 10603 10614 10625 10636 10651 10667 10680 10696 10708 10724 10735 10745 10753 10762 10763 10770 10777 10790 10799 10801 10808 10818 10829 10836 10841 10843 10849
10627 10617 10609 10602 10597 10592 10587 10584 10581 10579 10580 10582 10583 10583 10585 10586 10587 10591 10598 10606 10617 10631 10646 10662 10674 10688 10698 10714 10727 10728 10731 10737 10742 10752 10764 10783 10795 10795 10802 10814 10817 10819 10821 10824 10832
10616 10607 10599 10592 10586 10582 10578 10573 10572 10571 10573 10577 10578 10579 10579 10582 10585 10589 10592 10601 10613 10628 10643 10654 10663 10680 10683 10691 10699 10710 10721 10730 10736 10746 10762 10775 10786 10789 10788 10801 10804 10803 10803 10810 10818
10601 10594 10586 10581 10574 10570 10566 10562 10561 10560 10564 10568 10572 10572 10576 10578 10581 10586 10592 10599 10609 10620 10631 10643 10657 10661 10668 10683 10694 10709 10721 10728 10728 10733 10753 10760 10772 10778 10777 10783 10787 10788 10789 10794 10802
10588 10579 10571 10565 10560 10556 10552 10550 10548 10549 10552 10557 10561 10564 10569 10573 10576 10580 10586 10593 10600 10611 10624 10635 10640 10641 10658 10673 10685 10697 10708 10711 10714 10719 10741 10746 10760 10763 10766 10764 10773 10776 10778 10783 10783
10572 10563 10555 10548 10543 10538 10536 10534 10534 10535 10541 10544 10548 10556 10561 10566 10570 10573 10578 10585 10594 10602 10611 10621 10627 10643 10657 10668 10675 10686 10693 10698 10702 10705 10723 10729 10743 10746 10752 10754 10755 10757 10762 10765 10764
10550 10543 10533 10528 10523 10519 10517 10517 10519 10520 10527 10532 10538 10544 10550 10557 10562 10566 10569 10577 10583 10590 10602 10606 10614 10626 10640 10650 10660 10669 10677 10681 10684 10687 10701 10715 10725 10728 10735 10737 10739 10740 10745 10748 10745
10527 10519 10509 10505 10500 10498 10496 10498 10502 10507 10510 10518 10523 10531 10540 10546 10552 10559 10564 10567 10573 10584 10591 10596 10609 10619 10629 10634 10648 10652 10660 10667 10673 10677 10688 10695 10707 10720 10714 10719 10721 10726 10728 10729 10732
10501 10491 10485 10473 10476 10473 10474 10478 10485 10490 10494 10502 10508 10515 10525 10534 10541 10549 10556 10560 10567 10571 10575 10580 10593 10600 10609 10617 10630 10636 10643 10652 10657 10666 10682 10676 10686 10709 10701 10701 10702 10700 10708 10714 10716
10474 10465 10453 10447 10449 10450 10453 10459 10468 10473 10478 10485 10494 10503 10513 10522 10530 10539 10549 10554 10559 10563 10568 10574 10581 10590 10599 10606 10613 10619 10626 10635 10643 10651 10657 10662 10674 10681 10684 10682 10680 10682 10690 10700 10703
10445 10436 10425 10423 10422 10429 10435 10442 10448 10457 10463 10471 10480 10490 10499 10509 10520 10527 10535 10543 10549 10555 10559 10562 10569 10575 10583 10588 10597 10606 10612 10616 10626 10637 10642 10649 10656 10656 10659 10662 10664 10668 10672 10676 10680
10420 10411 10401 10399 10402 10409 10418 10425 10433 10441 10448 10457 10467 10476 10485 10495 10503 10511 10521 10531 10536 10540 10546 10553 10560 10566 10573 10580 10586 10595 10602 10608 10615 10623 10629 10636 10639 10637 10635 10644 10649 10647 10652 10658 10660
10394 10387 10381 10379 10382 10390 10400 10405 10416 10428 10435 10445 10455 10463 10471 10481 10489 10500 10508 10512 10517 10528 10537 10545 10551 10555 10563 10569 10574 10583 10591 10596 10602 10611 10615 10620 10621 10618 10625 10624 10627 10632 10634 10640 10645
10369 10368 10362 10360 10365 10372 10379 10388 10402 10413 10422 10433 10444 10451 10457 10467 10477 10486 10493 10498 10508 10518 10525 10534 10539 10546 10553 10560 10566 10575 10582 10586 10593 10597 10601 10606 10608 10603 10604 10605 10610 10616 10622 10627 10628
10351 10349 10346 10345 10349 10355 10363 10376 10387 10397 10408 10422 10433 10440 10448 10455 10463 10472 10482 10488 10497 10504 10511 10520 10527 10534 10543 10549 10555 10563 10567 10572 10577 10582 10590 10592 10594 10586 10591 10593 10596 10601 10607 10610 10607
10334 10332 10332 10331 10336 10343 10351 10362 10373 10385 10397 10409 10420 10426 10433 10442 10447 10456 10465 10473 10480 10488 10497 10504 10512 10524 10531 10536 10540 10547 10551 10555 10562 10568 10571 10578 10573 10574 10579 10580 10581 10586 10585 10587 10591
10319 10318 10320 10320 10325 10332 10340 10351 10360 10369 10382 10396 10405 10411 10416 10425 10432 10440 10451 10460 10469 10477 10485 10493 10502 10508 10514 10521 10527 10532 10534 10540 10548 10550 10556 10554 10562 10558 10562 10564 10562 10562 10567 10569 10571
10306 10305 10308 10311 10315 10321 10328 10337 10347 10360 10367 10380 10385 10393 10403 10413 10418 10428 10438 10449 10459 10465 10471 10478 10484 10491 10499 10506 10511 10517 10521 10528 10530 10532 10539 10541 10543 10545 10543 10543 10542 10543 10545 10547 10549
10294 10294 10296 10300 10302 10309 10319 10328 10338 10349 10359 10366 10376 10381 10393 10404 10412 10419 10429 10438 10445 10452 10458 10466 10473 10479 10485 10492 10497 10501 10504 10511 10515 10517 10521 10524 10526 10525 10524 10524 10524 10523 10523 10523 10523